Home   Weather   USA   Austin   Past weeks
Flag for USA

Past Weather in Austin, Texas, USA — November 2017

Currently: 71 °F. Mild. (Weather station: Camp Mabry / Austin City, USA). See more current weather

November 2017 Weather in Austin — Graph

°F

High & Low Weather Summary for November 2017

 TemperatureHumidityPressure
High88 °F (Nov 3, 3:51 pm)100% (Nov 1, 5:51 am)30.40 "Hg (Nov 1, 5:51 am)
Low39 °F (Nov 23, 6:51 am)20% (Nov 22, 4:51 pm)29.78 "Hg (Nov 1, 5:51 pm)
Average65 °F70%30.08 "Hg
* Reported Nov 1 12:23 am — Nov 30 11:51 pm, Austin. Weather by CustomWeather, © 2023

Note: Actual official high and low records may vary slightly from our data, if they occured in-between our weather recording intervals... More about our weather records

Austin Weather History for November 1, 2017

Scroll right to see more
 ConditionsComfort  
Time TempWeatherWind HumidityBarometerVisibility
12:23 am
Wed, Nov 1
53 °FLight rain. Low clouds.No wind96%29.98 "Hg7 mi
12:51 am53 °FLow clouds.5 mph96%29.96 "Hg7 mi
1:51 am53 °FLow clouds.No wind96%29.95 "Hg10 mi
2:20 am53 °FMostly cloudy.No wind96%29.94 "Hg9 mi
3:02 am53 °FMostly cloudy.3 mph96%29.92 "Hg9 mi
3:51 am53 °FFog.No wind96%29.90 "Hg5 mi
4:51 am53 °FFog.No wind96%29.90 "Hg2 mi
5:51 am53 °FFog.No wind100%29.90 "Hg1 mi
6:51 am53 °FFog.No wind100%29.90 "Hg1 mi
7:22 am53 °FFog.No wind100%29.91 "Hg2 mi
7:51 am53 °FFog.No wind100%29.91 "Hg1 mi
8:51 am53 °FFog.No wind100%29.93 "Hg1 mi
9:10 am54 °FFog.No wind100%29.93 "Hg0 mi
9:51 am55 °FFog.No wind100%29.93 "Hg0 mi
11:00 am57 °FFog.No wind100%29.94 "Hg4 mi
11:51 am59 °FFog.No wind100%29.92 "Hg5 mi
12:22 pm62 °FLow clouds.3 mph93%29.91 "Hg8 mi
12:51 pm63 °FFog.3 mph93%29.88 "Hg6 mi
1:51 pm70 °FScattered clouds.3 mph79%29.84 "Hg10 mi
2:51 pm74 °FSunny.8 mph71%29.80 "Hg10 mi
3:51 pm77 °FSunny.7 mph66%29.79 "Hg10 mi
4:51 pm77 °FSunny.6 mph66%29.78 "Hg10 mi
5:51 pm75 °FSunny.5 mph69%29.78 "Hg10 mi
6:51 pm73 °FClear.5 mph74%29.79 "Hg10 mi
7:51 pm71 °FClear.6 mph78%29.80 "Hg10 mi
8:51 pm69 °FClear.5 mph81%29.83 "Hg10 mi
9:51 pm68 °FClear.3 mph84%29.84 "Hg10 mi
10:51 pm67 °FClear.No wind85%29.86 "Hg10 mi
11:51 pm66 °FClear.No wind87%29.87 "Hg10 mi
Weather by CustomWeather, © 2023

See weather overview